Regional Weather Roundup
Issued by NWS Wakefield, VA

Home | Current Version | Previous Version | Graphics & Text | Print | Product List | Glossary On
Versions: 1 2 3 4 5 6 7 8 9 10 11 12 13 14 15 16 17 18 19 20 21 22 23 24 25 26 27 28 29 30 31 32 33 34 35 36 37 38 39 40 41 42 43 44 45 46 47 48 49 50
000
ASUS41 KAKQ 281815
RWRAKQ

REGIONAL WEATHER ROUNDUP
NATIONAL WEATHER SERVICE WAKEFIELD VA
200 PM EDT TUE JUL 28 2015

Note: "fair" indicates few or no clouds below 12,000 feet with no
significant weather and/or obstructions to visibility. * = Denotes
station may not report precipitation (e.g., rain,snow,etc.),
thunder or fog.

VAZ042-051-052>054-056-281900-
NORTHERN VIRGINIA

CITY           SKY/WX    TMP DP  RH WIND       PRES   REMARKS
WASH NATIONAL  MOSUNNY   92  72  51 CALM      29.97F HX  99
DULLES         PTSUNNY   87  71  58 S5        29.98F
FORT BELVOIR   MOSUNNY   90  72  54 SE6       29.97F HX  97
QUANTICO       MOSUNNY   88  74  63 E3        29.97F HX  96
FREDERICKSBRG* HVY RAIN  86  77  74 E3        29.96F HX  96
STAFFORD*      CLOUDY    89  72  57 SE5       30.01F HX  95
WARRENTON      PTSUNNY   87  76  70 SE3       29.98F HX  98
CULPEPER*      PTSUNNY   84  74  72 CALM      29.99F
MANASSAS*      MOSUNNY   88  73  62 S7          N/A  HX  96
LEESBURG*      PTSUNNY   90  73  58 CALM      29.99F HX  98
WINCHESTER     PTSUNNY   88  70  55 CALM      30.00F
FRONT ROYAL*   MOCLDY    84  73  70 SE3       30.00F
LURAY*         MOCLDY    88  73  62 E9        30.00F HX  96
$$

VAZ048-049-060>072-079>083-281900-
CENTRAL AND SOUTH CENTRAL VIRGINIA

CITY           SKY/WX    TMP DP  RH WIND       PRES   REMARKS
RICHMOND       TSTM      78  74  87 S7        29.99S FOG
CHESTERFIELD*  CLOUDY    77  64  65 E3        30.00F
PETERSBURG*    TSTM      75  75 100 SW12G20   30.03R VSB 1/4
HANOVER        CLOUDY    79  70  74 SW15      30.00S THUNDER
TAPPAHANNOCK*  MOSUNNY   87  70  56 E3        29.98F
QUINTON*       CLOUDY    84  75  73 SW5       29.97F
CHARLOTTSVILLE MOSUNNY   85  72  65 NE5       29.99F
GORDONSVILLE*  CLOUDY    84  73  70 CALM      29.98F
ORANGE*        MOSUNNY   88  73  62 E6        30.00F HX  96
LOUISA*        PTSUNNY   88  75  66 NE5       29.97F HX  97
BUMPASS*       FAIR      87  75  67 CALM      29.98F HX  95
FARMVILLE*     CLOUDY    82  70  67 SW8       29.97F
CREWE*         CLOUDY   N/A N/A N/A SW8       30.00F VSB 1/2
FORT PICKETT*  CLOUDY    79  76  91 SE3       30.00F
CHASE CITY*    CLOUDY    89  74  63 SE8       29.98F HX  98
CLARKSVILLE*   MOCLDY    86  72  62 CALM      29.98F
SOUTH HILL*    PTSUNNY   80  73  80 SE7       30.06F
LAWRENCEVILLE* MOCLDY    82  79  89 S3        30.00F
EMPORIA*       PTSUNNY   81  72  74 SE3       30.01F
$$

VAZ088>098-281900-
SOUTHEAST VIRGINIA

CITY           SKY/WX    TMP DP  RH WIND       PRES   REMARKS
NORFOLK        CLOUDY    83  71  67 S7        30.00F
VIRGINIA BEACH PTSUNNY   89  69  51 SE10      29.99F
NORFOLK NAVAL  CLOUDY    82  71  69 E8        30.00F
WEST POINT*    SUNNY     89  72  56 SE10      29.99F HX  96
SALUDA*        MOCLDY    86  74  69 S9        29.98F
NEWPORT NEWS   MOSUNNY   89  72  56 S10       29.99F HX  96
LANGLEY AFB    PTSUNNY   87  73  62 SE6       29.99F
FORT EUSTIS    SUNNY     87  71  58 SE9       29.98F
WILLIAMSBURG*  SUNNY     93  75  55 SE8       30.00F HX 104
HR EXEC AP*    MOCLDY    84  72  65 S9        30.02F
FRANKLIN*      DRIZZLE   82  73  74 S5        30.00F
WAKEFIELD      PTSUNNY   87  71  58 VRB6      29.99F
$$

VAZ020-022-025-037-045-281900-
WEST CENTRAL AND SOUTHWEST VIRGINIA

CITY           SKY/WX    TMP DP  RH WIND       PRES   REMARKS
STAUNTON*      MOSUNNY   87  71  58 SE5       30.04F
WAYNESBORO*    MOCLDY    82  72  72 S3        30.04F
HOT SPRINGS VA PTSUNNY   75  69  79 SE5       30.16F
LYNCHBURG      MOSUNNY   85  72  65 VRB3      30.01F
DANVILLE       PTSUNNY   87  74  64 VRB6      29.98F HX  95
SOUTH BOSTON*  FAIR      86  73  64 S5        29.97F
MARTINSVILLE   LGT RAIN  85  73  66 NW8       30.02F
ROANOKE        MOSUNNY   85  71  63 NE7       30.03F
BLACKSBURG     SUNNY     86  70  59 W3        30.09F
DUBLIN*          N/A     82  70  66 W13G20    30.09S
MARION*        MOSUNNY   85  70  60 W7        30.11F
HILLSVILLE*    MOSUNNY   82  68  63 S3        30.09F
RICHLANDS*     FAIR      83  71  68 W8        30.10F
WISE*          PTSUNNY   86  66  51 NE3       30.12F
ABINGDON*      MOSUNNY   87  68  52 W8        30.07F
$$

MDZ021>025-VAZ099-100-281900-
SOUTHERN MARYLAND AND THE DELMARVA PENINSULA

CITY           SKY/WX    TMP DP  RH WIND       PRES   REMARKS
PATUXENT RIVER MOSUNNY   84  73  69 SE9       29.98F
BAY BRIDGE APT   N/A     84  72  65 W5        29.99F
LEONARDTOWN    SUNNY     86  72  62 CALM      30.00F
DOVER          MOSUNNY   85  76  74 E6        29.98S
GEORGETOWN     CLOUDY    87  70  56 SW7       29.99F
EASTON         MOSUNNY   90  75  62 CALM      30.02F HX 100
CAMBRIDGE      SUNNY     90  72  55 CALM      29.98F HX  96
SALISBURY      MOSUNNY   85  74  69 S8        29.98F
OCEAN CITY     MOSUNNY   84  73  69 S12G20    29.99F
WALLOPS ISLAND MOSUNNY   85  75  72 S15       30.01F
ACCOMACK*      MOSUNNY  N/A N/A N/A S9        29.99F
$$

NCZ012>017-030>032-281900-
NORTH CENTRAL AND EASTERN NORTH CAROLINA

CITY           SKY/WX    TMP DP  RH WIND       PRES   REMARKS
ROANOKE RAPIDS MOCLDY    86  72  62 S6        30.00F
RALEIGH        PTSUNNY   89  71  55 SE8       30.00F HX  95
ELIZABETH CITY MOSUNNY   86  71  60 E8        30.01F
AHOSKIE*       MOSUNNY   85  71  63 E5        30.00F
EDENTON*         N/A     86  70  58 S5        30.01F
CURRITUCK*     CLOUDY    86  65  49 S3        30.02F
KILL DEVIL HLS MOSUNNY   90  69  49 SE7       30.01F
MANTEO         MOSUNNY   84  70  62 SW10      30.02F
CAPE HATTERAS  SUNNY     88  69  53 SE9       30.02S
TARBORO*         N/A     89  72  56 SE5       30.01F HX  95
GOLDSBORO      MOSUNNY   87  71  58 SE6       29.99F
WASHINGTON     SUNNY     86  67  52 E9        30.01F
GREENVILLE     SUNNY     88  70  55 SE9       30.02F
NEW BERN       MOSUNNY   88  71  57 CALM      30.02F
WILMINGTON     MOSUNNY   86  70  58 E7        30.00F
$$

VAZ048-281900-
ELSEWHERE

CITY           SKY/WX    TMP DP  RH WIND       PRES   REMARKS
HARRISBURG PA  MOSUNNY   88  69  53 S3        29.99F
BALTIMORE      MOSUNNY   87  69  54 E7        29.97F
ANNAPOLIS      SUNNY     83  74  74 SE7       29.98F
ANDREWS AFB    MOSUNNY   87  73  63 SE8       29.98F HX  95
PHILADELPHIA   MOSUNNY   89  68  49 S6        29.97F
HENDERSON NC   SUNNY     86  69  56 S7        30.00F
GREENSBORO     PTSUNNY   87  71  58 S8        30.00F
ROCKY MOUNT    PTSUNNY   90  70  51 VRB6      30.00F HX  95
$$

VAZ100-281900-
MARINE

STATION/POSITION TIME  TEMP    WIND        PRES    WAVE   SWELL
                       AIR SEA DIR/SP/G            HT/PER HT/PER
                 (UTC) (F)     (DEG/KT/KT) (MB)    (FT/S) (FT/S)
BRANDYWINE LGT   1700   77 78  190/  5/  6 1016.3F
CAPE MAY NJ      1700   79 81  230/  8/  9 1015.5F
LEWES DE         1700   80 74   70/  7/  8 1015.8F
15NM E FENWICK I 1750   79 80  200/ 10/ 10 1016.1F   2/ 6   2/ 6
OCEAN-CITY-INLET 1700   79 79  200/ 11/ 14 1015.5F
WACHAPREAGUE VA  1706   84 83  220/  9/ 12 1016.5F
THOMAS POINT MD  1800   82        CALM     1015.7F
GOOSES REEF MD   1800   84 86     CALM     1016.4F
COVE POINT MD    1700   80     170/  2/  4 1016.8F
SOLOMONS ISLAND  1700      82                N/A
BISHOPS HEAD MD  1700   82 82  130/  1/  2 1015.3F
POTOMAC MD       1800   83 84  140/ 10/ 12 1014.1F   0
CAMBRIDGE MD     1700   84 83   20/  3/  3 1015.0F
LEWISETTA VA     1700   81 81  110/  9/ 10 1015.5F
RAPPAHANNOCK LGT 1700          200/ 11/ 13 1016.8F
STINGRAY PT      1800   83 83  160/ 12/ 14 1015.5F   1/ 3
YORK RVR RNG VA  1700   81     160/ 10/ 11 1015.8F
YORKTOWN VA      1700   84 83  210/  5/  9 1016.0F
JAMESTOWN VA     1800   84 85  130/  8/ 10   N/A
DOMINION TERM VA 1700   83     160/  5/  6 1016.4F
CHES BAY BRIDGE  1700   83 82  120/  5/ 11 1016.2F
CAPE HENRY VA    1700   81     140/ 12/ 17   N/A
CHESAPEAKE LGHT  1700   80     190/ 12/ 12 1017.5F
WILLOUBY STN VA  1700   82     350/  2/  3 1017.4F
CAPE HENRY BUOY  1728      81                N/A     2/11
1ST LANDING BUOY 1800      82              1015.4F   1/ 4
CAPE CHARLES BUO 1726      80                N/A     2/11   2/11
OFFSHORE WE BUOY 1711      81                N/A     3/11   2/11
64NM E OF VA BCH 1750   80 81  210/  6/  8 1016.4F   2/11   2/11
DUCK PIER NC     1700   82 71  120/  8/  9 1016.3F
44100 DUCK FRF   1724      81                N/A     2/11   2/11
44056 DUCK FRF   1711      81                N/A     2/11   2/11
OREGON INLET NC  1700   81 82   80/  6/  8 1016.9F
HATTERAS NC      1700   83 82  100/  7/  9 1016.3F
CAPE LOOKOUT NC  1800   82      80/ 10/ 11 1015.9F
$$



USA.gov is the U.S. government's official web portal to all federal, state and local government web resources and services.